Regional Weather Roundup
Issued by NWS Upton, NY

Current Version | Previous Version | Text Only | Print | Product List | Glossary Off
Versions: 1 2 3 4 5 6 7 8 9 10 11 12 13 14 15 16 17 18 19 20 21 22 23 24 25 26 27
000 ASUS41 KOKX 132308 RWROKX REGIONAL WEATHER ROUNDUP NATIONAL WEATHER SERVICE NEW YORK NY 600 PM EST WED DEC 13 2017 NOTE: "FAIR" INDICATES FEW OR NO CLOUDS BELOW 12,000 FEET WITH NO SIGNIFICANT WEATHER AND/OR OBSTRUCTIONS TO VISIBILITY. NYZ071-072-176-178-NJZ106-104-140000- NEW YORK CITY METRO AREA CITY SKY/WX TMP DP RH WIND PRES REMARKS Central Park PTCLDY 29 8 41 W8 29.67R WCI 21 Bronx Bot Gard N/A 30 7 37 W22 29.66R WCI 17 Bronx Lehman C NOT AVBL LaGuardia APRT CLEAR 30 7 37 W20G28 29.65R WCI 17 Queens College NOT AVBL Kennedy INTL PTCLDY 29 8 41 W23G32 29.67R WCI 15 Breezy Point N/A N/A N/A N/A W18G30 N/A Brooklyn Coll NOT AVBL Staten Island NOT AVBL Newark/Liberty PTCLDY 28 6 39 W15G26 29.67R WCI 16 Teterboro CLEAR 29 7 39 W15 29.65R WCI 18 $$ NYZ177-179-078>081-140000- LONG ISLAND NEW YORK CITY SKY/WX TMP DP RH WIND PRES REMARKS Jones Beach N/A N/A N/A N/A W18G28 N/A Wantagh NOT AVBL Matinecock PT N/A N/A N/A N/A W24 N/A Farmingdale CLEAR 28 8 43 W16 29.64R WCI 16 MacArthur/ISP CLEAR 28 4 35 W14 29.62R WCI 17 Shirley CLEAR 28 6 39 W10 29.63R WCI 19 Mt Sinai Harb N/A N/A N/A N/A W12G22 N/A Westhampton CLEAR 27 4 37 W13 29.62R WCI 16 East Hampton FAIR 28 7 40 W17G26 29.57R WCI 16 Southold NOT AVBL Montauk N/A 31 14 49 W18G36 29.58R WCI 19 $$ NYZ052-065-067-140000- HUDSON VALLEY CITY SKY/WX TMP DP RH WIND PRES REMARKS White Plains CLEAR 26 2 35 W12G23 29.60R WCI 16 Larchmont Harb N/A N/A N/A N/A W10 N/A Croton On Huds N/A N/A N/A N/A W20 N/A Somers NOT AVBL Brewster NOT AVBL Newburgh CLEAR 23 7 50 W17G23 29.61R WCI 9 Montgomery CLEAR 23 3 42 W3 29.62R Otisville NOT AVBL Warwick NOT AVBL Suffern NOT AVBL Poughkeepsie CLEAR 24 3 40 W17G24 29.61R WCI 11 Albany FLURRIES 21 8 57 W18G28 29.57R WCI 6 $$ NJZ001-105-106-008-010-013-015-019>022-104-140000- NEW JERSEY CITY SKY/WX TMP DP RH WIND PRES REMARKS Newark/Liberty PTCLDY 28 6 39 W15G26 29.67R WCI 16 Teterboro CLEAR 29 7 39 W15 29.65R WCI 18 Caldwell CLEAR 27 6 41 W7 29.67R WCI 19 Somerville CLEAR 26 7 44 VRB3G18 29.68R Linden FAIR 28 5 37 W16G24 29.69R WCI 16 Perth Amboy N/A N/A N/A N/A W21G26 N/A Sussex CLEAR 24 4 42 VRB6 29.64R WCI 17 Andover NOT AVBL Trenton CLEAR 27 5 39 W12G18 29.70R WCI 17 Millville CLEAR 27 8 44 W8 29.76R WCI 19 Atlantic City CLEAR 29 6 38 W12 29.75R WCI 19 Wrightstown CLEAR 27 4 38 W9 29.69R WCI 17 Toms River CLEAR 26 8 46 SW9 29.73R WCI 17 Belmar CLEAR 27 8 44 SW12 29.71R WCI 17 $$ PAZ047>061-062-071-140000- EASTERN PENNSYLVANIA CITY SKY/WX TMP DP RH WIND PRES REMARKS Philadelphia PTCLDY 28 3 34 W13 29.75R WCI 17 Allentown PTCLDY 25 5 42 W9 29.69R WCI 15 Scranton PTCLDY 22 6 50 W6 29.62R WCI 14 $$ CTZ002-004>006-009-010-012-RIZ004-006-007-MAZ004-011-015-140000- SOUTHERN NEW ENGLAND IN CT CITY SKY/WX TMP DP RH WIND PRES REMARKS Bradley INTL PTCLDY 22 8 55 W14G23 29.54R WCI 9 Hartford CLEAR 25 6 44 W12G20 29.56R WCI 14 Danbury CLEAR 25 2 37 W14G24 29.60R WCI 13 Wtrbury/Oxford CLEAR 22 6 50 W9G18 29.56R WCI 12 Norwalk Harbor N/A N/A N/A N/A W20 N/A Bridgeport CLEAR 28 4 35 W10 29.62R WCI 19 Meriden CLEAR 24 5 44 W14G22 29.57R WCI 12 New Haven CLEAR 28 7 41 W10G18 29.59R WCI 19 Chester FAIR 23 5 46 W12G33 29.53R WCI 12 Groton CLEAR 26 7 44 W14G22 29.56R WCI 14 Wilimantic CLEAR 25 9 50 W10G22 29.53R WCI 15 IN RI CITY SKY/WX TMP DP RH WIND PRES REMARKS Providence PTCLDY 25 8 48 W20G31 29.51R WCI 11 Block Island PTCLDY 28 15 58 W18G29 29.55R WCI 15 Westerly CLEAR 26 9 48 W8G21 29.55R WCI 18 IN MA CITY SKY/WX TMP DP RH WIND PRES REMARKS Boston PTCLDY 24 9 52 W21G36 29.43R WCI 9 Worcester CLEAR 17 5 59 W26G40 29.38S WCI -2 Westfield PTCLDY 21 9 59 NW12G22 29.52R WCI 9 Provincetown PTCLDY 25 14 63 W29G40 29.43R WCI 8 Nantucket PTCLDY 28 15 58 W30G40 29.47R WCI 12 $$ ANZ330-335-338-340-345-350-353-355-140000- COASTAL MARINE OBSERVATIONS STATION/POSITION TIME SKY/WX TEMP WIND PRES VSBY WAVE AIR SEA DIR/SP/G HT/PER (UTC) (F) (DEG/KT/KT) (MB) (MI) (FT/S) NY HARB ENTRANCE 2250 32 52 270/ 25/ 33 1003.7 5/ 5 20 S FIRE ISLAND 2150 33 51 280/ 25/ 31 1002.9 9/ 7 GREAT SOUTH BAY NOT AVBL HUDSON CANYON 2150 36 56 280/ 25/ 33 1003.5 12/ 8 KINGS POINT 2224 31 44 330/ 19/ 23 1004.2 EXECUTION ROCKS 2245 31 260/ 14/ 19 N/A WESTERN LI SOUND NOT AVBL CENTRAL LI SOUND NOT AVBL ROBBINS REEF 2224 29 270/ 22/ 26 1004.5 $$ >>>>>>>>>>>>>>>>>>>>>>>>>>>> KEY <<<<<<<<<<<<<<<<<<<<<<<<<<< > < > SKY/WX - Sky Condition/Present Weather < > TMP - Temperature in Fahrenheit < > DP - Dew Point in Fahrenheit < > RH - Relative Humidity in Percent < > WIND - Direction (from) and Speed in MPH < > PRES - Mean Sea Level Pressure (inches of Hg) < > WCI - Wind Chill Index < > VSB - VISIBILITY IN MILES < > HX - HEAT INDEX < > TC - TEMPERATURE IN CELSIUS < > VRB - VARIABLE WIND DIRECTION < > < >>>>>>>>>>>>>>>>>>>>>>>>>>>> KEY <<<<<<<<<<<<<<<<<<<<<<<<<<<

USA.gov is the U.S. government's official web portal to all federal, state and local government web resources and services.